This is the latest recevied weather packets stored in our database for station/object IR3AS. If no packets are shown the sender has not sent any weather packets the latest 10 day(s).
| Time | Temp. | Humidity | Pressure | Rain* | Wind** | Luminosity | Snow |
|---|---|---|---|---|---|---|---|
| 1776916587 | -1.11° C | 58% | 856 hPa | 0 mm | - | - | - |
| 1776916287 | -1.11° C | 64% | 855.2 hPa | 0 mm | - | - | - |
| 1776915987 | -1.67° C | 66% | 855.3 hPa | 0 mm | - | - | - |
| 1776915687 | -1.67° C | 70% | 855.1 hPa | 0 mm | - | - | - |
| 1776915387 | -2.22° C | 74% | 854.9 hPa | 0 mm | - | - | - |
| 1776915087 | -2.22° C | 76% | 855 hPa | 0 mm | - | - | - |
| 1776914787 | -2.22° C | 79% | 855.1 hPa | 0 mm | - | - | - |
| 1776914487 | -2.78° C | 81% | 855.1 hPa | 0 mm | - | - | - |
| 1776914187 | -2.22° C | 83% | 854.8 hPa | 0 mm | - | - | - |
| 1776913887 | -2.22° C | 80% | 855 hPa | 0 mm | - | - | - |
| 1776913587 | -2.22° C | 80% | 854.9 hPa | 0 mm | - | - | - |
| 1776913287 | -2.22° C | 78% | 855 hPa | 0 mm | - | - | - |
| 1776912987 | -2.22° C | 79% | 855.3 hPa | 0 mm | - | - | - |
| 1776912687 | -1.67° C | 77% | 855 hPa | 0 mm | - | - | - |
| 1776912387 | -1.67° C | 79% | 855.4 hPa | 0 mm | - | - | - |
| 1776912087 | -2.22° C | 82% | 855.3 hPa | 0 mm | - | - | - |
| 1776911787 | -2.22° C | 84% | 855.2 hPa | 0 mm | - | - | - |
| 1776911487 | -2.22° C | 85% | 855.4 hPa | 0 mm | - | - | - |
| 1776911187 | -2.22° C | 85% | 855.3 hPa | 0 mm | - | - | - |
| 1776910887 | -2.22° C | 85% | 855.4 hPa | 0 mm | - | - | - |
| 1776910587 | -2.22° C | 86% | 855.3 hPa | 0 mm | - | - | - |
| 1776910287 | -2.22° C | 86% | 855.7 hPa | 0 mm | - | - | - |
| 1776909987 | -2.22° C | 86% | 855.6 hPa | 0 mm | - | - | - |
| 1776909687 | -2.22° C | 86% | 855.7 hPa | 0 mm | - | - | - |
| 1776909387 | -2.22° C | 85% | 855.7 hPa | 0 mm | - | - | - |
* Rain latest hour (hover to see other rain measurements)
** Current wind speed in m/s (hover to see current wind gust speed)